Regional Weather Roundup
Issued by NWS Midland/Odessa, TX

Skip options and go directly to product.
Home | Oldest Version | Previous Version | Current Version | All | Text Only | Save Text | Print | Product List | Glossary Off

Skip product version selection by date and time.   

727
ASUS44 KMAF 310910
RWRMAF
MIDLAND AREA WEATHER ROUNDUP
NATIONAL WEATHER SERVICE MIDLAND TX
400 AM CDT SUN JUL 31 2016

...IN SOUTHWEST TEXAS AND SOUTHEAST NEW MEXICO...

CITY           SKY/WX    TMP DP  RH WIND       PRES   REMARKS
ALPINE         PTCLDY    68  59  73 SW7       30.15S
ANDREWS        FAIR      76  62  62 S6        30.03S
ARTESIA        PTCLDY    77  59  53 S8        30.01S
BIG SPRING     CLEAR     78  62  58 SE7       30.02F
CARLSBAD       PTCLDY    75  58  55 S6        29.98F
DRYDEN           N/A     76  64  66 NE5       29.96F
FORT STOCKTON  CLEAR     75  63  66 S9        29.99F
GUAD PASS      CLEAR     73  55  53 W9        30.15F
HOBBS          CLEAR     73  59  60 S9        30.04F
MARFA          CLEAR     61  58  90 N5        30.14S
MIDLAND AIRPK  CLEAR     79  62  55 S7        30.01S
MIDLAND INTL   CLEAR     79  62  56 S8        30.00F
ODESSA         CLEAR     79  61  53 S9        30.01F
PECOS          CLEAR     76  61  60 E7        29.95F
PRESIDIO       FAIR      79  61  53 CALM      29.99S
SEMINOLE       CLEAR     76  60  57 S8        30.04S
SNYDER           N/A     79  62  55 S7        30.01F
WINK           CLEAR     77  61  57 SE9       29.96F
$$
...OTHER STATIONS IN TEXAS...

CITY           SKY/WX    TMP DP  RH WIND       PRES   REMARKS
ABILENE        PTCLDY    79  65  62 S7        29.98S
AMARILLO       MOCLDY    73  59  61 S8        30.01F
AUSTIN         MOCLDY    77  76  96 S7        29.99F
BROWNSVILLE    CLOUDY    81  76  84 S8        29.98S
CORPUS CHRISTI MOCLDY    82  78  88 S10       29.97F
DALLAS FTW     PTCLDY    84  70  62 S15       29.95R
DEL RIO        CLEAR     82  71  69 SE7       29.94S
EL PASO        PTCLDY    80  57  45 S7        30.00F
HOUSTON INT    CLOUDY    80  76  87 S5        29.99R
LUBBOCK        CLOUDY    78  59  51 S12       30.01F
SAN ANGELO     CLEAR     80  67  64 S10       29.98F
SAN ANTONIO    MOCLDY    79  74  84 S14       30.00F
WACO           CLEAR     81  72  74 S12       29.98R
WICHITA FALLS  NOT AVBL
$$
...OTHER LOCATIONS IN NEW MEXICO...

CITY           SKY/WX    TMP DP  RH WIND       PRES   REMARKS
ALAMAGORDO     CLEAR     81  54  39 SE13      30.03S
ALBUQUERQUE    CLOUDY    69  57  65 NE10      30.15F
CANNON AFB     MOCLDY    69  58  68 E2        30.07F
CLOVIS         MOCLDY    70  55  60 CALM      30.08F
HOLLOMAN AFB   CLOUDY    80  54  40 S9        30.00S
ROSWELL        PTCLDY    75  56  51 S6        30.01S
RUIDOSO          N/A     64  48  55 NW7       30.25S
SANTA FE       CLOUDY    62  50  64 N3        30.21F
TRUTH OR CONSE CLOUDY    71  56  58 NW13      30.10F
TUCUMCARI      PTCLDY    72  56  57 MISG      29.99F
$$

USA.gov is the U.S. government's official web portal to all federal, state and local government web resources and services.